Time,TemperatureF,DewpointF,PressureIn,WindDirection,WindDirectionDegrees,WindSpeedMPH,WindSpeedGustMPH,Humidity,HourlyPrecipIn,Conditions,Clouds,dailyrainin,SoftwareType,DateUTC
2013-03-02 00:00:00,48.6,35.8,29.98,NW,315,0.0,4.5,61,0.00,,,0.00,WUHU216HW,2013-03-02 05:00:00,
2013-03-02 00:05:00,48.6,35.8,29.98,NW,315,1.3,4.5,61,0.00,,,0.00,WUHU216HW,2013-03-02 05:05:00,
2013-03-02 00:10:00,48.6,35.8,29.98,NNW,338,0.0,2.9,61,0.00,,,0.00,WUHU216HW,2013-03-02 05:10:00,
2013-03-02 00:15:00,48.6,35.8,29.98,NW,315,1.1,3.1,61,0.00,,,0.00,WUHU216HW,2013-03-02 05:15:00,
2013-03-02 00:20:00,48.6,35.8,29.98,North,0,0.9,3.4,61,0.00,,,0.00,WUHU216HW,2013-03-02 05:20:00,
2013-03-02 00:25:00,48.6,35.8,29.97,SSW,203,0.2,3.4,61,0.00,,,0.00,WUHU216HW,2013-03-02 05:25:00,
2013-03-02 00:30:00,48.4,35.6,29.97,North,0,0.4,3.8,61,0.00,,,0.00,WUHU216HW,2013-03-02 05:30:00,
2013-03-02 00:35:00,48.4,35.6,29.97,NNW,338,0.4,4.0,61,0.00,,,0.00,WUHU216HW,2013-03-02 05:35:00,
2013-03-02 00:40:00,48.2,35.5,29.97,NNW,338,1.1,4.0,61,0.00,,,0.00,WUHU216HW,2013-03-02 05:40:00,
2013-03-02 00:45:00,48.2,35.5,29.97,NNW,338,0.4,2.9,61,0.00,,,0.00,WUHU216HW,2013-03-02 05:45:00,
2013-03-02 00:50:00,48.2,35.5,29.97,NNW,338,0.2,2.9,61,0.00,,,0.00,WUHU216HW,2013-03-02 05:50:00,
2013-03-02 00:55:00,48.2,35.5,29.97,North,0,0.7,3.4,61,0.00,,,0.00,WUHU216HW,2013-03-02 05:55:00,
2013-03-02 01:00:00,48.2,35.8,29.98,North,0,0.4,3.4,62,0.00,,,0.00,WUHU216HW,2013-03-02 06:00:00,
2013-03-02 01:05:00,48.1,35.3,29.98,WNW,293,0.0,3.4,61,0.00,,,0.00,WUHU216HW,2013-03-02 06:05:00,
2013-03-02 01:10:00,48.1,35.3,29.98,SW,225,2.5,2.5,61,0.00,,,0.00,WUHU216HW,2013-03-02 06:10:00,
2013-03-02 01:15:00,47.9,35.1,29.98,NW,315,0.0,2.5,61,0.00,,,0.00,WUHU216HW,2013-03-02 06:15:00,
2013-03-02 01:20:00,47.7,35.4,29.98,NW,315,0.4,2.5,62,0.00,,,0.00,WUHU216HW,2013-03-02 06:20:00,
2013-03-02 01:25:00,47.5,35.2,29.98,West,270,0.7,3.8,62,0.00,,,0.00,WUHU216HW,2013-03-02 06:25:00,
2013-03-02 01:30:00,47.2,35.2,29.98,WNW,293,1.3,4.7,63,0.00,,,0.00,WUHU216HW,2013-03-02 06:30:00,
2013-03-02 01:35:00,47.2,34.8,29.98,NNW,338,0.0,4.7,62,0.00,,,0.00,WUHU216HW,2013-03-02 06:35:00,
2013-03-02 01:40:00,47.2,35.2,29.97,NW,315,1.3,1.8,63,0.00,,,0.00,WUHU216HW,2013-03-02 06:40:00,
2013-03-02 01:45:00,47.0,35.0,29.98,West,270,0.2,1.8,63,0.00,,,0.00,WUHU216HW,2013-03-02 06:45:00,
2013-03-02 01:50:00,47.0,35.0,29.98,NW,315,2.0,2.0,63,0.00,,,0.00,WUHU216HW,2013-03-02 06:50:00,
2013-03-02 01:55:00,47.0,35.0,29.98,NW,315,1.1,4.9,63,0.00,,,0.00,WUHU216HW,2013-03-02 06:55:00,
2013-03-02 02:00:00,47.0,35.0,29.98,North,0,1.8,4.9,63,0.00,,,0.00,WUHU216HW,2013-03-02 07:00:00,
2013-03-02 02:05:00,47.2,34.8,29.98,West,270,0.7,3.8,62,0.00,,,0.00,WUHU216HW,2013-03-02 07:05:00,
2013-03-02 02:10:00,47.2,34.8,29.97,West,270,0.2,3.8,62,0.00,,,0.00,WUHU216HW,2013-03-02 07:10:00,
2013-03-02 02:15:00,47.2,34.4,29.97,NW,315,0.4,3.4,61,0.00,,,0.00,WUHU216HW,2013-03-02 07:15:00,
2013-03-02 02:20:00,47.2,34.4,29.97,NW,315,1.6,3.8,61,0.00,,,0.00,WUHU216HW,2013-03-02 07:20:00,
2013-03-02 02:25:00,47.0,34.7,29.97,North,0,1.8,6.0,62,0.00,,,0.00,WUHU216HW,2013-03-02 07:25:00,
2013-03-02 02:30:00,47.0,34.2,29.97,SSW,203,0.2,6.0,61,0.00,,,0.00,WUHU216HW,2013-03-02 07:30:00,
2013-03-02 02:35:00,46.8,34.0,29.97,NE,45,0.9,3.4,61,0.00,,,0.00,WUHU216HW,2013-03-02 07:35:00,
2013-03-02 02:40:00,46.8,34.5,29.96,North,0,0.4,3.4,62,0.00,,,0.00,WUHU216HW,2013-03-02 07:40:00,
2013-03-02 02:45:00,46.6,34.3,29.96,NNW,338,0.4,3.4,62,0.00,,,0.00,WUHU216HW,2013-03-02 07:45:00,
2013-03-02 02:50:00,46.6,34.3,29.96,NW,315,0.2,3.6,62,0.00,,,0.00,WUHU216HW,2013-03-02 07:50:00,
2013-03-02 02:55:00,46.4,34.5,29.97,NW,315,0.9,3.6,63,0.00,,,0.00,WUHU216HW,2013-03-02 07:55:00,
2013-03-02 03:00:00,46.3,34.3,29.96,NNW,338,0.4,3.4,63,0.00,,,0.00,WUHU216HW,2013-03-02 08:00:00,
2013-03-02 03:05:00,46.3,34.3,29.97,NW,315,0.4,3.4,63,0.00,,,0.00,WUHU216HW,2013-03-02 08:05:00,
2013-03-02 03:10:00,46.1,34.1,29.97,NW,315,0.2,3.8,63,0.00,,,0.00,WUHU216HW,2013-03-02 08:10:00,
2013-03-02 03:15:00,45.9,34.4,29.97,NW,315,0.2,3.8,64,0.00,,,0.00,WUHU216HW,2013-03-02 08:15:00,
2013-03-02 03:20:00,45.7,34.2,29.96,NE,45,0.4,2.5,64,0.00,,,0.00,WUHU216HW,2013-03-02 08:20:00,
2013-03-02 03:25:00,45.7,34.2,29.96,NNW,338,0.2,3.4,64,0.00,,,0.00,WUHU216HW,2013-03-02 08:25:00,
2013-03-02 03:30:00,45.5,34.5,29.96,NNE,23,0.0,3.4,65,0.00,,,0.00,WUHU216HW,2013-03-02 08:30:00,
2013-03-02 03:35:00,45.2,34.5,29.96,NNW,338,2.0,2.5,66,0.00,,,0.00,WUHU216HW,2013-03-02 08:35:00,
2013-03-02 03:40:00,45.0,34.7,29.97,WNW,293,0.4,2.5,67,0.00,,,0.00,WUHU216HW,2013-03-02 08:40:00,
2013-03-02 03:45:00,44.8,34.1,29.96,North,0,0.0,2.5,66,0.00,,,0.00,WUHU216HW,2013-03-02 08:45:00,
2013-03-02 03:50:00,44.6,34.3,29.97,NW,315,0.2,2.5,67,0.00,,,0.00,WUHU216HW,2013-03-02 08:50:00,
2013-03-02 03:55:00,44.3,34.4,29.97,WNW,293,1.1,1.8,68,0.00,,,0.00,WUHU216HW,2013-03-02 08:55:00,
2013-03-02 04:00:00,44.1,34.2,29.97,NW,315,0.9,2.2,68,0.00,,,0.00,WUHU216HW,2013-03-02 09:00:00,
2013-03-02 04:05:00,43.9,34.0,29.97,WSW,248,0.7,2.5,68,0.00,,,0.00,WUHU216HW,2013-03-02 09:05:00,
2013-03-02 04:10:00,43.7,33.8,29.97,NW,315,0.9,3.1,68,0.00,,,0.00,WUHU216HW,2013-03-02 09:10:00,
2013-03-02 04:15:00,43.6,34.1,29.97,NW,315,0.4,3.1,69,0.00,,,0.00,WUHU216HW,2013-03-02 09:15:00,
2013-03-02 04:20:00,43.6,34.1,29.97,NNE,23,0.0,1.1,69,0.00,,,0.00,WUHU216HW,2013-03-02 09:20:00,
2013-03-02 04:25:00,43.4,34.3,29.97,West,270,1.1,1.1,70,0.00,,,0.00,WUHU216HW,2013-03-02 09:25:00,
2013-03-02 04:30:00,43.2,34.2,29.97,NNW,338,0.2,2.0,70,0.00,,,0.00,WUHU216HW,2013-03-02 09:30:00,
2013-03-02 04:35:00,43.0,33.6,29.97,WSW,248,1.1,2.0,69,0.00,,,0.00,WUHU216HW,2013-03-02 09:35:00,
2013-03-02 04:40:00,42.8,33.5,29.98,WNW,293,0.0,2.2,69,0.00,,,0.00,WUHU216HW,2013-03-02 09:40:00,
2013-03-02 04:45:00,42.8,33.8,29.98,NNW,338,0.2,2.2,70,0.00,,,0.00,WUHU216HW,2013-03-02 09:45:00,
2013-03-02 04:50:00,42.7,33.7,29.98,NW,315,0.0,1.1,70,0.00,,,0.00,WUHU216HW,2013-03-02 09:50:00,
2013-03-02 04:55:00,42.5,33.9,29.98,NW,315,0.2,1.1,71,0.00,,,0.00,WUHU216HW,2013-03-02 09:55:00,
2013-03-02 05:00:00,42.3,33.3,29.98,NNE,23,0.0,1.1,70,0.00,,,0.00,WUHU216HW,2013-03-02 10:00:00,
2013-03-02 05:05:00,42.1,33.5,29.98,NNE,23,0.4,0.9,71,0.00,,,0.00,WUHU216HW,2013-03-02 10:05:00,
2013-03-02 05:10:00,42.1,33.1,29.98,NW,315,0.7,0.7,70,0.00,,,0.00,WUHU216HW,2013-03-02 10:10:00,
2013-03-02 05:15:00,41.9,32.9,29.98,WSW,248,0.0,0.9,70,0.00,,,0.00,WUHU216HW,2013-03-02 10:15:00,
2013-03-02 05:20:00,41.8,32.8,29.98,NW,315,0.0,1.1,70,0.00,,,0.00,WUHU216HW,2013-03-02 10:20:00,
2013-03-02 05:25:00,41.6,32.6,29.98,NW,315,0.0,1.1,70,0.00,,,0.00,WUHU216HW,2013-03-02 10:25:00,
2013-03-02 05:30:00,41.4,32.8,29.98,WNW,293,0.0,1.1,71,0.00,,,0.00,WUHU216HW,2013-03-02 10:30:00,
2013-03-02 05:35:00,41.2,32.6,29.98,WNW,293,0.0,1.1,71,0.00,,,0.00,WUHU216HW,2013-03-02 10:35:00,
2013-03-02 05:41:00,41.0,32.4,29.98,WSW,248,0.0,1.1,71,0.00,,,0.00,WUHU216HW,2013-03-02 10:41:00,
2013-03-02 05:46:00,40.9,32.2,29.98,NW,315,0.0,1.1,71,0.00,,,0.00,WUHU216HW,2013-03-02 10:46:00,
2013-03-02 05:51:00,40.7,32.1,29.98,NW,315,0.0,0.9,71,0.00,,,0.00,WUHU216HW,2013-03-02 10:51:00,
2013-03-02 05:56:00,40.7,32.1,29.98,NW,315,0.0,0.9,71,0.00,,,0.00,WUHU216HW,2013-03-02 10:56:00,
2013-03-02 06:01:00,40.7,32.1,29.97,NW,315,0.0,0.0,71,0.00,,,0.00,WUHU216HW,2013-03-02 11:01:00,
2013-03-02 06:06:00,40.3,31.7,29.97,NNW,338,0.0,0.0,71,0.00,,,0.00,WUHU216HW,2013-03-02 11:06:00,
2013-03-02 06:11:00,40.1,31.5,29.97,North,0,0.0,0.0,71,0.00,,,0.00,WUHU216HW,2013-03-02 11:11:00,
2013-03-02 06:16:00,40.3,31.7,29.97,NNW,338,0.0,0.0,71,0.00,,,0.00,WUHU216HW,2013-03-02 11:16:00,
2013-03-02 06:21:00,40.0,31.3,29.97,NW,315,0.0,0.0,71,0.00,,,0.00,WUHU216HW,2013-03-02 11:21:00,
2013-03-02 06:26:00,39.6,31.3,29.97,NW,315,0.0,0.0,72,0.00,,,0.00,WUHU216HW,2013-03-02 11:26:00,
2013-03-02 06:31:00,39.2,31.0,29.96,NW,315,0.0,0.0,72,0.00,,,0.00,WUHU216HW,2013-03-02 11:31:00,
2013-03-02 06:36:00,39.2,31.0,29.97,NW,315,0.0,0.0,72,0.00,,,0.00,WUHU216HW,2013-03-02 11:36:00,
2013-03-02 06:41:00,39.1,30.8,29.97,NW,315,0.0,0.0,72,0.00,,,0.00,WUHU216HW,2013-03-02 11:41:00,
2013-03-02 06:46:00,39.2,31.2,29.97,WNW,293,0.0,0.0,73,0.00,,,0.00,WUHU216HW,2013-03-02 11:46:00,
2013-03-02 06:51:00,39.6,31.6,29.98,WNW,293,0.0,0.2,73,0.00,,,0.00,WUHU216HW,2013-03-02 11:51:00,
2013-03-02 06:56:00,39.4,31.2,29.98,WNW,293,0.0,0.2,72,0.00,,,0.00,WUHU216HW,2013-03-02 11:56:00,
2013-03-02 07:01:00,39.2,31.2,29.98,WNW,293,0.0,0.0,73,0.00,,,0.00,WUHU216HW,2013-03-02 12:01:00,
2013-03-02 07:06:00,38.9,31.0,29.98,NW,315,0.0,0.0,73,0.00,,,0.00,WUHU216HW,2013-03-02 12:06:00,
2013-03-02 07:11:00,38.7,30.8,29.98,WNW,293,0.0,0.0,73,0.00,,,0.00,WUHU216HW,2013-03-02 12:11:00,
2013-03-02 07:16:00,38.9,31.2,29.98,WNW,293,0.0,0.0,74,0.00,,,0.00,WUHU216HW,2013-03-02 12:16:00,
2013-03-02 07:21:00,38.7,31.2,29.98,NNW,338,0.0,0.0,74,0.00,,,0.00,WUHU216HW,2013-03-02 12:21:00,
2013-03-02 07:26:00,38.7,31.2,29.98,WNW,293,0.0,0.0,74,0.00,,,0.00,WUHU216HW,2013-03-02 12:26:00,
2013-03-02 07:31:00,38.9,31.2,29.98,WNW,293,0.0,0.4,74,0.00,,,0.00,WUHU216HW,2013-03-02 12:31:00,
2013-03-02 07:36:00,39.2,31.6,29.98,NW,315,0.0,0.4,74,0.00,,,0.00,WUHU216HW,2013-03-02 12:36:00,
2013-03-02 07:41:00,39.4,31.8,29.98,WNW,293,0.0,0.4,74,0.00,,,0.00,WUHU216HW,2013-03-02 12:41:00,
2013-03-02 07:46:00,39.4,32.1,29.98,NNE,23,0.0,0.4,75,0.00,,,0.00,WUHU216HW,2013-03-02 12:46:00,
2013-03-02 07:51:00,39.6,32.3,29.98,NW,315,0.0,0.4,75,0.00,,,0.00,WUHU216HW,2013-03-02 12:51:00,
2013-03-02 07:56:00,39.6,32.3,29.98,West,270,0.4,0.7,75,0.00,,,0.00,WUHU216HW,2013-03-02 12:56:00,
2013-03-02 08:01:00,40.1,32.8,29.98,WNW,293,0.0,1.6,75,0.00,,,0.00,WUHU216HW,2013-03-02 13:01:00,
2013-03-02 08:06:00,40.5,33.5,29.98,NW,315,0.7,2.7,76,0.00,,,0.00,WUHU216HW,2013-03-02 13:06:00,
2013-03-02 08:11:00,41.0,34.7,29.98,WSW,248,1.1,3.4,78,0.00,,,0.00,WUHU216HW,2013-03-02 13:11:00,
2013-03-02 08:16:00,41.4,34.7,29.98,SW,225,0.0,3.4,77,0.00,,,0.00,WUHU216HW,2013-03-02 13:16:00,
2013-03-02 08:21:00,42.1,35.4,29.98,West,270,1.8,2.5,77,0.00,,,0.00,WUHU216HW,2013-03-02 13:21:00,
2013-03-02 08:26:00,42.7,35.7,29.98,South,180,0.0,4.3,76,0.00,,,0.00,WUHU216HW,2013-03-02 13:26:00,
2013-03-02 08:31:00,43.0,35.3,29.98,NW,315,0.7,4.3,74,0.00,,,0.00,WUHU216HW,2013-03-02 13:31:00,
2013-03-02 08:36:00,43.6,35.8,29.98,WSW,248,0.2,2.2,74,0.00,,,0.00,WUHU216HW,2013-03-02 13:36:00,
2013-03-02 08:41:00,44.1,35.6,29.98,WSW,248,3.1,4.0,72,0.00,,,0.00,WUHU216HW,2013-03-02 13:41:00,
2013-03-02 08:46:00,44.6,36.2,29.98,NW,315,1.3,4.0,72,0.00,,,0.00,WUHU216HW,2013-03-02 13:46:00,
2013-03-02 08:51:00,45.2,36.0,29.99,West,270,0.4,3.4,70,0.00,,,0.00,WUHU216HW,2013-03-02 13:51:00,
2013-03-02 08:56:00,45.7,36.2,29.99,WSW,248,0.4,3.4,69,0.00,,,0.00,WUHU216HW,2013-03-02 13:56:00,
2013-03-02 09:01:00,46.6,36.3,29.99,NW,315,1.8,4.9,67,0.00,,,0.00,WUHU216HW,2013-03-02 14:01:00,
2013-03-02 09:06:00,47.2,36.4,29.99,SE,135,1.1,4.9,66,0.00,,,0.00,WUHU216HW,2013-03-02 14:06:00,
2013-03-02 09:11:00,48.2,36.3,29.99,WNW,293,0.0,3.6,63,0.00,,,0.00,WUHU216HW,2013-03-02 14:11:00,
2013-03-02 09:16:00,49.0,36.1,29.99,NNW,338,0.7,3.6,61,0.00,,,0.00,WUHU216HW,2013-03-02 14:16:00,
2013-03-02 09:21:00,49.5,35.8,29.98,West,270,1.1,4.7,59,0.00,,,0.00,WUHU216HW,2013-03-02 14:21:00,
2013-03-02 09:26:00,50.0,36.7,29.98,NW,315,1.8,4.7,60,0.00,,,0.00,WUHU216HW,2013-03-02 14:26:00,
2013-03-02 09:31:00,50.4,37.1,29.98,WNW,293,1.6,3.4,60,0.00,,,0.00,WUHU216HW,2013-03-02 14:31:00,
2013-03-02 09:36:00,51.3,36.1,29.98,WSW,248,0.4,3.4,56,0.00,,,0.00,WUHU216HW,2013-03-02 14:36:00,
2013-03-02 09:41:00,51.7,35.9,29.98,WSW,248,2.9,4.0,55,0.00,,,0.00,WUHU216HW,2013-03-02 14:41:00,
2013-03-02 09:46:00,52.2,35.1,29.98,NW,315,0.9,4.0,52,0.00,,,0.00,WUHU216HW,2013-03-02 14:46:00,
2013-03-02 09:51:00,52.2,35.6,29.98,North,0,1.1,3.4,53,0.00,,,0.00,WUHU216HW,2013-03-02 14:51:00,
2013-03-02 09:56:00,52.4,35.7,29.97,West,270,1.8,4.3,53,0.00,,,0.00,WUHU216HW,2013-03-02 14:56:00,
2013-03-02 10:01:00,52.9,35.3,29.97,WSW,248,3.6,4.7,51,0.00,,,0.00,WUHU216HW,2013-03-02 15:01:00,
2013-03-02 10:06:00,52.9,35.3,29.97,WNW,293,4.3,6.7,51,0.00,,,0.00,WUHU216HW,2013-03-02 15:06:00,
2013-03-02 10:11:00,53.1,34.4,29.97,SW,225,2.5,8.5,49,0.00,,,0.00,WUHU216HW,2013-03-02 15:11:00,
2013-03-02 10:16:00,53.1,35.0,29.96,NW,315,3.4,8.5,50,0.00,,,0.00,WUHU216HW,2013-03-02 15:16:00,
2013-03-02 10:21:00,53.5,35.3,29.96,West,270,2.5,7.2,50,0.00,,,0.00,WUHU216HW,2013-03-02 15:21:00,
2013-03-02 10:26:00,53.6,35.9,29.96,West,270,4.3,8.1,51,0.00,,,0.00,WUHU216HW,2013-03-02 15:26:00,
2013-03-02 10:31:00,53.8,35.1,29.95,SW,225,4.3,8.1,49,0.00,,,0.00,WUHU216HW,2013-03-02 15:31:00,
2013-03-02 10:36:00,53.8,35.1,29.95,WSW,248,7.4,7.4,49,0.00,,,0.00,WUHU216HW,2013-03-02 15:36:00,
2013-03-02 10:41:00,54.0,34.1,29.95,West,270,3.4,9.8,47,0.00,,,0.00,WUHU216HW,2013-03-02 15:41:00,
2013-03-02 10:46:00,54.4,34.5,29.95,West,270,1.6,9.8,47,0.00,,,0.00,WUHU216HW,2013-03-02 15:46:00,
2013-03-02 10:51:00,54.7,36.5,29.95,SSE,158,2.7,7.6,50,0.00,,,0.00,WUHU216HW,2013-03-02 15:51:00,
2013-03-02 10:56:00,54.7,33.7,29.95,West,270,2.7,6.3,45,0.00,,,0.00,WUHU216HW,2013-03-02 15:56:00,
2013-03-02 11:01:00,54.7,34.7,29.95,WNW,293,2.5,6.3,47,0.00,,,0.00,WUHU216HW,2013-03-02 16:01:00,
2013-03-02 11:06:00,55.1,34.6,29.95,NW,315,1.8,8.5,46,0.00,,,0.00,WUHU216HW,2013-03-02 16:06:00,
2013-03-02 11:11:00,55.8,34.1,29.95,NW,315,3.4,8.5,44,0.00,,,0.00,WUHU216HW,2013-03-02 16:11:00,
2013-03-02 11:16:00,55.8,34.7,29.95,East,90,5.4,5.4,45,0.00,,,0.00,WUHU216HW,2013-03-02 16:16:00,
2013-03-02 11:21:00,55.8,35.2,29.95,North,0,3.1,7.2,46,0.00,,,0.00,WUHU216HW,2013-03-02 16:21:00,
2013-03-02 11:26:00,56.2,35.0,29.95,NW,315,4.0,7.2,45,0.00,,,0.00,WUHU216HW,2013-03-02 16:26:00,
2013-03-02 11:31:00,56.7,34.9,29.95,North,0,2.7,7.4,44,0.00,,,0.00,WUHU216HW,2013-03-02 16:31:00,
2013-03-02 11:36:00,56.5,33.6,29.95,NW,315,1.3,10.5,42,0.00,,,0.00,WUHU216HW,2013-03-02 16:36:00,
2013-03-02 11:41:00,56.5,34.2,29.94,NW,315,0.4,10.5,43,0.00,,,0.00,WUHU216HW,2013-03-02 16:41:00,
2013-03-02 11:46:00,57.2,33.1,29.94,NW,315,7.4,7.6,40,0.00,,,0.00,WUHU216HW,2013-03-02 16:46:00,
2013-03-02 11:51:00,57.4,33.3,29.94,WNW,293,2.0,7.6,40,0.00,,,0.00,WUHU216HW,2013-03-02 16:51:00,
2013-03-02 11:56:00,57.2,32.4,29.94,WNW,293,2.7,7.4,39,0.00,,,0.00,WUHU216HW,2013-03-02 16:56:00,
2013-03-02 12:01:00,57.8,33.6,29.94,WSW,248,4.7,7.6,40,0.00,,,0.00,WUHU216HW,2013-03-02 17:01:00,
2013-03-02 12:06:00,58.0,33.0,29.93,SSW,203,4.0,9.8,39,0.00,,,0.00,WUHU216HW,2013-03-02 17:06:00,
2013-03-02 12:11:00,58.3,32.0,29.94,East,90,2.9,9.8,37,0.00,,,0.00,WUHU216HW,2013-03-02 17:11:00,
2013-03-02 12:16:00,58.0,31.0,29.93,SSE,158,4.7,9.2,36,0.00,,,0.00,WUHU216HW,2013-03-02 17:16:00,
2013-03-02 12:21:00,57.6,32.0,29.93,NNW,338,0.9,6.3,38,0.00,,,0.00,WUHU216HW,2013-03-02 17:21:00,
2013-03-02 12:26:00,58.5,32.9,29.93,WNW,293,7.6,7.6,38,0.00,,,0.00,WUHU216HW,2013-03-02 17:26:00,
2013-03-02 12:31:00,58.9,32.5,29.93,SW,225,2.5,8.7,37,0.00,,,0.00,WUHU216HW,2013-03-02 17:31:00,
2013-03-02 12:36:00,58.7,33.0,29.93,NW,315,3.4,8.7,38,0.00,,,0.00,WUHU216HW,2013-03-02 17:36:00,
2013-03-02 12:41:00,58.7,33.0,29.93,West,270,8.1,10.1,38,0.00,,,0.00,WUHU216HW,2013-03-02 17:41:00,
2013-03-02 12:46:00,58.5,32.1,29.93,SW,225,4.9,10.1,37,0.00,,,0.00,WUHU216HW,2013-03-02 17:46:00,
2013-03-02 12:51:00,59.2,34.2,29.93,NNW,338,1.6,8.1,39,0.00,,,0.00,WUHU216HW,2013-03-02 17:51:00,
2013-03-02 12:56:00,59.0,32.0,29.93,ESE,113,3.8,7.6,36,0.00,,,0.00,WUHU216HW,2013-03-02 17:56:00,
2013-03-02 13:01:00,58.5,32.1,29.93,NW,315,3.4,6.3,37,0.00,,,0.00,WUHU216HW,2013-03-02 18:01:00,
2013-03-02 13:06:00,57.8,32.2,29.93,NW,315,2.7,6.3,38,0.00,,,0.00,WUHU216HW,2013-03-02 18:06:00,
2013-03-02 13:11:00,57.6,33.5,29.92,SW,225,1.1,6.3,40,0.00,,,0.00,WUHU216HW,2013-03-02 18:11:00,
2013-03-02 13:16:00,57.2,33.1,29.92,WNW,293,3.4,7.6,40,0.00,,,0.00,WUHU216HW,2013-03-02 18:16:00,
2013-03-02 13:21:00,57.2,33.1,29.92,WSW,248,1.1,7.6,40,0.00,,,0.00,WUHU216HW,2013-03-02 18:21:00,
2013-03-02 13:26:00,57.2,32.4,29.92,NNW,338,3.4,9.2,39,0.00,,,0.00,WUHU216HW,2013-03-02 18:26:00,
2013-03-02 13:31:00,56.9,32.8,29.92,WSW,248,3.4,9.2,40,0.00,,,0.00,WUHU216HW,2013-03-02 18:31:00,
2013-03-02 13:36:00,56.9,32.1,29.91,WSW,248,2.0,9.4,39,0.00,,,0.00,WUHU216HW,2013-03-02 18:36:00,
2013-03-02 13:41:00,57.6,33.5,29.92,WSW,248,3.1,9.4,40,0.00,,,0.00,WUHU216HW,2013-03-02 18:41:00,
2013-03-02 13:46:00,57.4,32.6,29.92,NW,315,1.3,7.6,39,0.00,,,0.00,WUHU216HW,2013-03-02 18:46:00,
2013-03-02 13:51:00,57.1,32.2,29.91,West,270,4.0,7.6,39,0.00,,,0.00,WUHU216HW,2013-03-02 18:51:00,
2013-03-02 13:56:00,57.2,33.7,29.91,SW,225,4.9,5.4,41,0.00,,,0.00,WUHU216HW,2013-03-02 18:56:00,
2013-03-02 14:01:00,57.1,31.6,29.91,NNW,338,6.9,7.4,38,0.00,,,0.00,WUHU216HW,2013-03-02 19:01:00,
2013-03-02 14:06:00,56.5,31.8,29.90,West,270,1.1,11.0,39,0.00,,,0.00,WUHU216HW,2013-03-02 19:06:00,
2013-03-02 14:11:00,57.1,32.9,29.91,East,90,1.1,11.0,40,0.00,,,0.00,WUHU216HW,2013-03-02 19:11:00,
2013-03-02 14:16:00,56.9,32.8,29.91,WNW,293,1.8,5.6,40,0.00,,,0.00,WUHU216HW,2013-03-02 19:16:00,
2013-03-02 14:21:00,57.6,33.5,29.91,WNW,293,1.8,12.1,40,0.00,,,0.00,WUHU216HW,2013-03-02 19:21:00,
2013-03-02 14:26:00,58.0,32.4,29.90,SE,135,0.7,12.1,38,0.00,,,0.00,WUHU216HW,2013-03-02 19:26:00,
2013-03-02 14:31:00,57.8,32.2,29.91,West,270,2.5,7.4,38,0.00,,,0.00,WUHU216HW,2013-03-02 19:31:00,
2013-03-02 14:36:00,57.8,32.2,29.90,North,0,5.1,9.2,38,0.00,,,0.00,WUHU216HW,2013-03-02 19:36:00,
2013-03-02 14:41:00,57.2,31.7,29.90,West,270,6.9,9.8,38,0.00,,,0.00,WUHU216HW,2013-03-02 19:41:00,
2013-03-02 14:45:00,57.1,31.6,29.90,NNW,338,4.0,9.8,38,0.00,,,0.00,WUHU216HW,2013-03-02 19:45:00,
2013-03-02 14:50:00,57.1,31.6,29.90,WSW,248,0.4,7.8,38,0.00,,,0.00,WUHU216HW,2013-03-02 19:50:00,
2013-03-02 14:55:00,56.9,32.1,29.90,WNW,293,1.6,6.5,39,0.00,,,0.00,WUHU216HW,2013-03-02 19:55:00,
2013-03-02 15:00:00,56.9,32.8,29.90,NW,315,0.2,5.4,40,0.00,,,0.00,WUHU216HW,2013-03-02 20:00:00,
2013-03-02 15:05:00,57.4,32.6,29.90,WNW,293,6.3,6.3,39,0.00,,,0.00,WUHU216HW,2013-03-02 20:05:00,
2013-03-02 15:10:00,57.4,31.1,29.90,SSW,203,3.1,6.5,37,0.00,,,0.00,WUHU216HW,2013-03-02 20:10:00,
2013-03-02 15:16:00,56.9,32.1,29.90,WSW,248,1.1,11.4,39,0.00,,,0.00,WUHU216HW,2013-03-02 20:16:00,
2013-03-02 15:21:00,56.5,31.1,29.90,WSW,248,1.3,11.4,38,0.00,,,0.00,WUHU216HW,2013-03-02 20:21:00,
2013-03-02 15:26:00,57.1,32.9,29.90,NNW,338,2.7,6.9,40,0.00,,,0.00,WUHU216HW,2013-03-02 20:26:00,
2013-03-02 15:31:00,57.1,32.9,29.90,NNE,23,0.7,6.5,40,0.00,,,0.00,WUHU216HW,2013-03-02 20:31:00,
2013-03-02 15:36:00,57.4,31.9,29.90,NW,315,4.0,4.7,38,0.00,,,0.00,WUHU216HW,2013-03-02 20:36:00,
2013-03-02 15:41:00,57.4,32.6,29.90,NW,315,4.3,5.6,39,0.00,,,0.00,WUHU216HW,2013-03-02 20:41:00,
2013-03-02 15:46:00,57.2,31.7,29.90,WNW,293,3.6,6.7,38,0.00,,,0.00,WUHU216HW,2013-03-02 20:46:00,
2013-03-02 15:51:00,56.0,32.0,29.90,WNW,293,2.0,6.7,40,0.00,,,0.00,WUHU216HW,2013-03-02 20:51:00,
2013-03-02 15:56:00,55.8,32.4,29.90,NW,315,3.8,6.9,41,0.00,,,0.00,WUHU216HW,2013-03-02 20:56:00,
2013-03-02 16:01:00,54.7,32.0,29.91,SSE,158,0.2,6.9,42,0.00,,,0.00,WUHU216HW,2013-03-02 21:01:00,
2013-03-02 16:05:00,54.5,31.8,29.91,NNW,338,6.9,6.9,42,0.00,,,0.00,WUHU216HW,2013-03-02 21:05:00,
2013-03-02 16:10:00,54.0,31.9,29.91,NW,315,2.2,6.9,43,0.00,,,0.00,WUHU216HW,2013-03-02 21:10:00,
2013-03-02 16:16:00,53.8,31.7,29.91,NW,315,2.5,6.9,43,0.00,,,0.00,WUHU216HW,2013-03-02 21:16:00,
2013-03-02 16:20:00,54.7,33.1,29.90,NNW,338,2.5,5.1,44,0.00,,,0.00,WUHU216HW,2013-03-02 21:20:00,
2013-03-02 16:25:00,55.1,32.9,29.91,West,270,2.5,4.0,43,0.00,,,0.00,WUHU216HW,2013-03-02 21:25:00,
2013-03-02 16:30:00,54.5,32.4,29.91,SW,225,0.2,5.1,43,0.00,,,0.00,WUHU216HW,2013-03-02 21:30:00,
2013-03-02 16:35:00,54.4,32.8,29.91,NNW,338,0.2,5.1,44,0.00,,,0.00,WUHU216HW,2013-03-02 21:35:00,
2013-03-02 16:40:00,54.4,32.2,29.91,ESE,113,0.9,4.0,43,0.00,,,0.00,WUHU216HW,2013-03-02 21:40:00,
2013-03-02 16:45:00,54.4,32.8,29.91,NW,315,1.8,7.8,44,0.00,,,0.00,WUHU216HW,2013-03-02 21:45:00,
2013-03-02 16:50:00,53.3,31.8,29.92,North,0,0.2,7.8,44,0.00,,,0.00,WUHU216HW,2013-03-02 21:50:00,
2013-03-02 16:55:00,53.3,32.3,29.92,North,0,0.4,3.8,45,0.00,,,0.00,WUHU216HW,2013-03-02 21:55:00,
2013-03-02 17:00:00,53.6,32.1,29.92,NNW,338,0.9,3.4,44,0.00,,,0.00,WUHU216HW,2013-03-02 22:00:00,
2013-03-02 17:05:00,53.1,32.2,29.92,NNW,338,2.2,4.7,45,0.00,,,0.00,WUHU216HW,2013-03-02 22:05:00,
2013-03-02 17:11:00,52.6,31.7,29.92,North,0,0.4,4.7,45,0.00,,,0.00,WUHU216HW,2013-03-02 22:11:00,
2013-03-02 17:16:00,51.8,31.6,29.93,North,0,0.4,5.1,46,0.00,,,0.00,WUHU216HW,2013-03-02 22:16:00,
2013-03-02 17:21:00,51.1,31.5,29.93,East,90,0.4,5.1,47,0.00,,,0.00,WUHU216HW,2013-03-02 22:21:00,
2013-03-02 17:26:00,50.8,31.2,29.93,NNW,338,0.2,4.0,47,0.00,,,0.00,WUHU216HW,2013-03-02 22:26:00,
2013-03-02 17:31:00,50.6,31.6,29.93,NW,315,1.1,3.4,48,0.00,,,0.00,WUHU216HW,2013-03-02 22:31:00,
2013-03-02 17:36:00,50.2,31.2,29.93,North,0,1.3,4.7,48,0.00,,,0.00,WUHU216HW,2013-03-02 22:36:00,
2013-03-02 17:41:00,49.9,31.5,29.93,NNW,338,2.2,4.7,49,0.00,,,0.00,WUHU216HW,2013-03-02 22:41:00,
2013-03-02 17:46:00,49.5,31.7,29.94,NW,315,2.5,4.0,50,0.00,,,0.00,WUHU216HW,2013-03-02 22:46:00,
2013-03-02 17:51:00,49.1,30.8,29.94,North,0,0.7,7.6,49,0.00,,,0.00,WUHU216HW,2013-03-02 22:51:00,
2013-03-02 17:56:00,48.6,30.3,29.94,North,0,0.4,7.6,49,0.00,,,0.00,WUHU216HW,2013-03-02 22:56:00,
2013-03-02 18:01:00,48.2,30.9,29.94,North,0,1.6,4.0,51,0.00,,,0.00,WUHU216HW,2013-03-02 23:01:00,
2013-03-02 18:06:00,47.7,30.4,29.95,NW,315,0.4,4.9,51,0.00,,,0.00,WUHU216HW,2013-03-02 23:06:00,
2013-03-02 18:11:00,47.3,31.0,29.95,NW,315,3.4,4.9,53,0.00,,,0.00,WUHU216HW,2013-03-02 23:11:00,
2013-03-02 18:16:00,47.0,30.7,29.95,South,180,5.6,5.6,53,0.00,,,0.00,WUHU216HW,2013-03-02 23:16:00,
2013-03-02 18:21:00,46.6,30.8,29.95,NW,315,0.4,5.6,54,0.00,,,0.00,WUHU216HW,2013-03-02 23:21:00,
2013-03-02 18:26:00,46.4,30.6,29.95,NW,315,0.4,5.6,54,0.00,,,0.00,WUHU216HW,2013-03-02 23:26:00,
2013-03-02 18:31:00,46.1,30.2,29.96,NE,45,0.4,4.0,54,0.00,,,0.00,WUHU216HW,2013-03-02 23:31:00,
2013-03-02 18:36:00,45.9,30.6,29.96,NW,315,3.1,4.0,55,0.00,,,0.00,WUHU216HW,2013-03-02 23:36:00,
2013-03-02 18:41:00,45.5,30.2,29.96,North,0,1.1,3.1,55,0.00,,,0.00,WUHU216HW,2013-03-02 23:41:00,
2013-03-02 18:46:00,45.4,30.5,29.96,NW,315,0.4,3.1,56,0.00,,,0.00,WUHU216HW,2013-03-02 23:46:00,
2013-03-02 18:51:00,45.2,30.3,29.96,North,0,0.4,4.0,56,0.00,,,0.00,WUHU216HW,2013-03-02 23:51:00,
2013-03-02 18:56:00,45.0,29.8,29.96,WSW,248,0.2,4.0,55,0.00,,,0.00,WUHU216HW,2013-03-02 23:56:00,
2013-03-02 19:01:00,44.8,29.6,29.97,NNW,338,2.9,3.6,55,0.00,,,0.00,WUHU216HW,2013-03-03 00:01:00,
2013-03-02 19:06:00,44.6,29.4,29.97,North,0,0.7,3.6,55,0.00,,,0.00,WUHU216HW,2013-03-03 00:06:00,
2013-03-02 19:11:00,44.3,29.1,29.97,NNE,23,0.9,3.1,55,0.00,,,0.00,WUHU216HW,2013-03-03 00:11:00,
2013-03-02 19:16:00,44.1,28.9,29.98,West,270,1.8,3.8,55,0.00,,,0.00,WUHU216HW,2013-03-03 00:16:00,
2013-03-02 19:21:00,43.9,29.2,29.98,NW,315,3.4,3.8,56,0.00,,,0.00,WUHU216HW,2013-03-03 00:21:00,
2013-03-02 19:26:00,43.9,28.7,29.98,SW,225,0.7,3.8,55,0.00,,,0.00,WUHU216HW,2013-03-03 00:26:00,
2013-03-02 19:31:00,43.6,28.8,29.98,WSW,248,1.6,3.6,56,0.00,,,0.00,WUHU216HW,2013-03-03 00:31:00,
2013-03-02 19:36:00,43.6,28.5,29.98,NW,315,0.9,4.7,55,0.00,,,0.00,WUHU216HW,2013-03-03 00:36:00,
2013-03-02 19:41:00,43.6,28.5,29.98,West,270,0.7,4.9,55,0.00,,,0.00,WUHU216HW,2013-03-03 00:41:00,
2013-03-02 19:46:00,43.2,28.1,29.98,NW,315,1.6,4.9,55,0.00,,,0.00,WUHU216HW,2013-03-03 00:46:00,
2013-03-02 19:51:00,43.0,27.9,29.98,NNW,338,0.7,3.4,55,0.00,,,0.00,WUHU216HW,2013-03-03 00:51:00,
2013-03-02 19:56:00,43.0,27.9,29.98,NNW,338,4.7,4.7,55,0.00,,,0.00,WUHU216HW,2013-03-03 00:56:00,
2013-03-02 20:01:00,43.0,27.9,29.98,NW,315,1.8,4.7,55,0.00,,,0.00,WUHU216HW,2013-03-03 01:01:00,
2013-03-02 20:06:00,42.8,27.7,29.98,NE,45,1.8,3.4,55,0.00,,,0.00,WUHU216HW,2013-03-03 01:06:00,
2013-03-02 20:11:00,42.8,28.2,29.98,West,270,3.1,3.1,56,0.00,,,0.00,WUHU216HW,2013-03-03 01:11:00,
2013-03-02 20:16:00,42.8,28.2,29.99,NW,315,0.4,3.1,56,0.00,,,0.00,WUHU216HW,2013-03-03 01:16:00,
2013-03-02 20:21:00,42.7,28.0,29.98,ENE,68,0.7,3.4,56,0.00,,,0.00,WUHU216HW,2013-03-03 01:21:00,
2013-03-02 20:26:00,42.5,28.3,29.98,SE,135,0.4,3.6,57,0.00,,,0.00,WUHU216HW,2013-03-03 01:26:00,
2013-03-02 20:31:00,42.5,28.3,29.99,NW,315,3.6,3.6,57,0.00,,,0.00,WUHU216HW,2013-03-03 01:31:00,
2013-03-02 20:36:00,42.5,28.7,29.99,NNE,23,0.4,3.6,58,0.00,,,0.00,WUHU216HW,2013-03-03 01:36:00,
2013-03-02 20:41:00,42.3,28.5,29.99,ENE,68,0.4,3.6,58,0.00,,,0.00,WUHU216HW,2013-03-03 01:41:00,
2013-03-02 20:46:00,42.1,28.4,29.99,NNW,338,0.4,3.8,58,0.00,,,0.00,WUHU216HW,2013-03-03 01:46:00,
2013-03-02 20:51:00,42.1,28.4,30.00,NW,315,0.0,3.8,58,0.00,,,0.00,WUHU216HW,2013-03-03 01:51:00,
2013-03-02 20:56:00,41.9,28.6,30.00,NNW,338,0.9,4.7,59,0.00,,,0.00,WUHU216HW,2013-03-03 01:56:00,
2013-03-02 21:01:00,41.9,28.6,30.00,NNW,338,0.7,5.4,59,0.00,,,0.00,WUHU216HW,2013-03-03 02:01:00,
2013-03-02 21:06:00,41.9,29.1,30.00,NW,315,0.4,5.4,60,0.00,,,0.00,WUHU216HW,2013-03-03 02:06:00,
2013-03-02 21:11:00,41.9,29.1,30.00,NW,315,0.4,3.8,60,0.00,,,0.00,WUHU216HW,2013-03-03 02:11:00,
2013-03-02 21:16:00,41.8,28.9,30.00,North,0,0.0,2.2,60,0.00,,,0.00,WUHU216HW,2013-03-03 02:16:00,
2013-03-02 21:21:00,41.8,28.9,30.00,NW,315,0.9,4.0,60,0.00,,,0.00,WUHU216HW,2013-03-03 02:21:00,
2013-03-02 21:26:00,41.6,28.7,30.00,NNW,338,0.0,4.0,60,0.00,,,0.00,WUHU216HW,2013-03-03 02:26:00,
2013-03-02 21:31:00,41.6,29.2,30.00,NNW,338,0.2,3.6,61,0.00,,,0.00,WUHU216HW,2013-03-03 02:31:00,
2013-03-02 21:36:00,41.4,29.3,30.00,WNW,293,1.1,3.6,62,0.00,,,0.00,WUHU216HW,2013-03-03 02:36:00,
2013-03-02 21:41:00,41.4,29.3,30.00,NW,315,0.7,3.8,62,0.00,,,0.00,WUHU216HW,2013-03-03 02:41:00,
2013-03-02 21:46:00,41.4,29.0,30.00,WSW,248,0.0,3.8,61,0.00,,,0.00,WUHU216HW,2013-03-03 02:46:00,
2013-03-02 21:51:00,41.2,29.5,30.00,NNW,338,1.8,2.0,63,0.00,,,0.00,WUHU216HW,2013-03-03 02:51:00,
2013-03-02 21:56:00,41.0,29.0,30.00,NW,315,1.1,2.5,62,0.00,,,0.00,WUHU216HW,2013-03-03 02:56:00,
2013-03-02 22:01:00,41.0,29.0,30.00,NW,315,0.4,2.5,62,0.00,,,0.00,WUHU216HW,2013-03-03 03:01:00,
2013-03-02 22:06:00,41.0,29.0,30.00,NNW,338,1.1,2.2,62,0.00,,,0.00,WUHU216HW,2013-03-03 03:06:00,
2013-03-02 22:11:00,41.0,29.4,30.00,West,270,0.4,2.2,63,0.00,,,0.00,WUHU216HW,2013-03-03 03:11:00,
2013-03-02 22:16:00,40.9,28.8,30.00,North,0,0.2,2.0,62,0.00,,,0.00,WUHU216HW,2013-03-03 03:16:00,
2013-03-02 22:21:00,40.7,29.1,30.00,NNW,338,0.0,2.5,63,0.00,,,0.00,WUHU216HW,2013-03-03 03:21:00,
2013-03-02 22:26:00,40.7,29.4,30.00,WNW,293,1.1,2.5,64,0.00,,,0.00,WUHU216HW,2013-03-03 03:26:00,
2013-03-02 22:31:00,40.5,28.9,30.00,NNW,338,0.7,2.0,63,0.00,,,0.00,WUHU216HW,2013-03-03 03:31:00,
2013-03-02 22:36:00,40.3,28.7,30.00,WSW,248,0.0,2.0,63,0.00,,,0.00,WUHU216HW,2013-03-03 03:36:00,
2013-03-02 22:41:00,40.3,29.1,30.00,NW,315,2.9,2.9,64,0.00,,,0.00,WUHU216HW,2013-03-03 03:41:00,
2013-03-02 22:46:00,40.1,28.9,30.00,West,270,1.3,2.9,64,0.00,,,0.00,WUHU216HW,2013-03-03 03:46:00,
2013-03-02 22:51:00,40.3,29.1,30.00,North,0,0.0,1.3,64,0.00,,,0.00,WUHU216HW,2013-03-03 03:51:00,
2013-03-02 22:56:00,40.1,29.3,30.00,North,0,1.8,1.8,65,0.00,,,0.00,WUHU216HW,2013-03-03 03:56:00,
2013-03-02 23:01:00,40.1,29.3,30.00,NW,315,1.3,1.8,65,0.00,,,0.00,WUHU216HW,2013-03-03 04:01:00,
2013-03-02 23:06:00,40.1,29.3,30.00,WSW,248,1.8,2.7,65,0.00,,,0.00,WUHU216HW,2013-03-03 04:06:00,
2013-03-02 23:11:00,40.0,29.1,30.00,North,0,0.0,3.8,65,0.00,,,0.00,WUHU216HW,2013-03-03 04:11:00,
2013-03-02 23:16:00,40.0,29.1,29.99,NW,315,0.0,3.8,65,0.00,,,0.00,WUHU216HW,2013-03-03 04:16:00,
2013-03-02 23:21:00,40.0,29.1,29.99,NW,315,0.0,2.0,65,0.00,,,0.00,WUHU216HW,2013-03-03 04:21:00,
2013-03-02 23:26:00,40.0,28.7,29.99,WNW,293,0.4,2.0,64,0.00,,,0.00,WUHU216HW,2013-03-03 04:26:00,
2013-03-02 23:31:00,39.8,28.5,29.99,WSW,248,0.7,1.3,64,0.00,,,0.00,WUHU216HW,2013-03-03 04:31:00,
2013-03-02 23:36:00,40.0,28.7,29.99,WNW,293,2.5,2.5,64,0.00,,,0.00,WUHU216HW,2013-03-03 04:36:00,
2013-03-02 23:41:00,40.0,29.1,29.99,NW,315,0.4,2.5,65,0.00,,,0.00,WUHU216HW,2013-03-03 04:41:00,
2013-03-02 23:46:00,39.8,28.5,29.99,North,0,1.8,2.7,64,0.00,,,0.00,WUHU216HW,2013-03-03 04:46:00,
2013-03-02 23:51:00,39.8,28.5,29.99,NW,315,0.0,2.7,64,0.00,,,0.00,WUHU216HW,2013-03-03 04:51:00,
2013-03-02 23:56:00,39.8,28.5,29.98,NW,315,0.4,1.8,64,0.00,,,0.00,WUHU216HW,2013-03-03 04:56:00,